GW4036 Weather Reports


time (UTC)temp
C
wind
direction
speed
KPH
gust
KPH
rain 1hr
cm
rain 24hr
cm
rain mn
cm
humidity
%
barometer
mb
20260506051318 10 107 4.8 4.8 0.00 0.00 0.00 64 1016.1
20260506050816 11 161 1.6 3.2 0.00 0.00 0.00 63 1016.0
20260506050313 10 89 0.0 3.2 0.00 0.00 0.00 63 1016.0
20260506044803 11 268 0.0 4.8 0.00 0.00 0.00 61 1015.6
20260506044301 11 26 1.6 4.8 0.00 0.00 0.00 60 1015.6
20260506043758 12 296 1.6 4.8 0.00 0.00 0.00 59 1015.6
20260506043255 12 335 4.8 4.8 0.00 0.00 0.00 59 1015.4
20260506042754 12 308 3.2 4.8 0.00 0.00 0.00 58 1015.5
20260506042253 12 357 3.2 4.8 0.00 0.00 0.00 58 1015.7
20260506041751 12 358 3.2 4.8 0.00 0.00 0.00 57 1015.5
20260506041247 12 9 3.2 3.2 0.00 0.00 0.00 57 1015.5
20260506040745 12 23 3.2 4.8 0.00 0.00 0.00 58 1015.4
20260506040242 13 13 3.2 6.4 0.00 0.00 0.00 58 1015.0
20260506035738 13 15 3.2 4.8 0.00 0.00 0.00 57 1015.1
20260506035235 13 19 4.8 4.8 0.00 0.00 0.00 55 1015.0
20260506034732 13 23 1.6 3.2 0.00 0.00 0.00 54 1015.0
20260506034229 14 23 3.2 4.8 0.00 0.00 0.00 52 1014.9
20260506033727 15 58 1.6 3.2 0.00 0.00 0.00 50 1014.6
20260506033224 15 44 0.0 4.8 0.00 0.00 0.00 49 1014.9
20260506032720 15 20 3.2 3.2 0.00 0.00 0.00 46 1014.6
20260506032217 16 66 0.0 4.8 0.00 0.00 0.00 45 1014.6
20260506031714 16 1 1.6 3.2 0.00 0.00 0.00 43 1014.5
20260506031211 17 18 6.4 6.4 0.00 0.00 0.00 41 1014.5
20260506030710 17 319 6.4 11.3 0.00 0.00 0.00 40 1014.1
20260506030207 17 344 3.2 6.4 0.00 0.00 0.00 39 1014.3
20260506025703 18 330 4.8 6.4 0.00 0.00 0.00 39 1014.3
20260506025200 18 314 3.2 9.7 0.00 0.00 0.00 38 1014.0
20260506024657 18 310 0.0 6.4 0.00 0.00 0.00 38 1014.2
20260506024153 18 290 8.0 8.0 0.00 0.00 0.00 37 1014.2
20260506023649 18 241 0.0 14.5 0.00 0.00 0.00 37 1014.0
20260506023147 20 330 6.4 9.7 0.00 0.00 0.00 36 1014.1
20260506022644 20 276 4.8 16.1 0.00 0.00 0.00 35 1013.7
20260506022141 20 309 14.5 20.9 0.00 0.00 0.00 34 1013.7
20260506021639 20 345 4.8 6.4 0.00 0.00 0.00 35 1014.0
20260506021136 20 326 6.4 9.7 0.00 0.00 0.00 34 1013.9
20260506020633 20 314 6.4 12.9 0.00 0.00 0.00 34 1013.9
20260506020131 21 356 4.8 12.9 0.00 0.00 0.00 33 1013.5
20260506015628 21 305 6.4 19.3 0.00 0.00 0.00 33 1013.6
20260506015125 21 285 4.8 8.0 0.00 0.00 0.00 33 1013.9
20260506014623 21 283 3.2 16.1 0.00 0.00 0.00 33 1013.5
20260506014118 21 302 3.2 11.3 0.00 0.00 0.00 32 1013.5
20260506013617 21 293 8.0 12.9 0.00 0.00 0.00 32 1013.4
20260506013113 21 298 6.4 14.5 0.00 0.00 0.00 31 1013.7
20260506012609 21 284 6.4 12.9 0.00 0.00 0.00 31 1013.4
20260506012105 22 305 3.2 6.4 0.00 0.00 0.00 32 1013.6
20260506011604 21 306 6.4 9.7 0.00 0.00 0.00 32 1013.5
20260506011100 22 291 6.4 16.1 0.00 0.00 0.00 32 1013.5
20260506010559 21 294 4.8 27.4 0.00 0.00 0.00 32 1013.5
20260506010050 22 328 11.3 14.5 0.00 0.00 0.00 32 1013.5
20260506005547 21 327 11.3 19.3 0.00 0.00 0.00 32 1013.4
20260506005043 22 285 4.8 12.9 0.00 0.00 0.00 32 1013.3
20260506004541 22 286 3.2 16.1 0.00 0.00 0.00 32 1013.5
20260506004037 22 314 3.2 12.9 0.00 0.00 0.00 31 1013.0
20260506003533 22 329 12.9 12.9 0.00 0.00 0.00 32 1013.2
20260506003029 22 269 14.5 19.3 0.00 0.00 0.00 31 1013.2
20260506002526 22 279 8.0 17.7 0.00 0.00 0.00 32 1013.2
20260506002022 22 296 14.5 19.3 0.00 0.00 0.00 31 1013.0
20260506001519 22 302 11.3 20.9 0.00 0.00 0.00 31 1013.0
20260506001016 22 332 11.3 19.3 0.00 0.00 0.00 31 1012.9
20260506000514 22 332 11.3 19.3 0.00 0.00 0.00 31 1012.9
20260506000011 23 308 11.3 16.1 0.00 0.00 0.00 31 1012.9
20260505235509 22 299 17.7 27.4 0.00 0.00 0.00 31 1013.0
20260505235005 23 1 3.2 14.5 0.00 0.00 0.00 31 1012.7
20260505234502 23 354 9.7 14.5 0.00 0.00 0.00 30 1012.7
20260505233959 23 349 4.8 19.3 0.00 0.00 0.00 31 1012.9
20260505233456 23 305 14.5 22.5 0.00 0.00 0.00 30 1012.6
20260505232954 23 258 6.4 24.1 0.00 0.00 0.00 30 1012.7
20260505232452 23 16 6.4 22.5 0.00 0.00 0.00 30 1012.6
20260505231948 23 309 9.7 24.1 0.00 0.00 0.00 29 1012.7
20260505231446 23 335 14.5 22.5 0.00 0.00 0.00 29 1012.6
20260505230943 23 340 4.8 20.9 0.00 0.00 0.00 27 1012.6
20260505230441 23 279 8.0 25.7 0.00 0.00 0.00 25 1012.9
20260505225937 23 286 24.1 29.0 0.00 0.00 0.00 28 1012.5
20260505225435 23 323 19.3 25.7 0.00 0.00 0.00 28 1012.7
20260505224930 23 337 14.5 25.7 0.00 0.00 0.00 27 1012.7
20260505224427 24 300 9.7 16.1 0.00 0.00 0.00 27 1012.6
20260505223924 23 353 9.7 19.3 0.00 0.00 0.00 27 1012.6
20260505223421 23 302 12.9 25.7 0.00 0.00 0.00 28 1012.5
20260505222917 23 306 8.0 16.1 0.00 0.00 0.00 27 1012.7
20260505222413 23 317 9.7 20.9 0.00 0.00 0.00 28 1012.5
20260505221910 24 309 8.0 12.9 0.00 0.00 0.00 28 1012.7
20260505221407 23 291 8.0 25.7 0.00 0.00 0.00 28 1012.5
20260505220904 23 309 9.7 19.3 0.00 0.00 0.00 29 1012.6
20260505220401 23 333 16.1 20.9 0.00 0.00 0.00 28 1012.5
20260505215858 24 354 4.8 14.5 0.00 0.00 0.00 29 1012.6
20260505215356 25 327 9.7 12.9 0.00 0.00 0.00 28 1012.6
20260505214855 23 345 12.9 20.9 0.00 0.00 0.00 29 1012.7
20260505214352 23 290 4.8 20.9 0.00 0.00 0.00 28 1012.7
20260505213849 23 325 8.0 24.1 0.00 0.00 0.00 26 1012.9
20260505213347 23 304 11.3 20.9 0.00 0.00 0.00 28 1012.5
20260505212842 23 280 6.4 19.3 0.00 0.00 0.00 29 1012.5
20260505212340 23 288 8.0 17.7 0.00 0.00 0.00 29 1012.7
20260505211836 23 319 9.7 24.1 0.00 0.00 0.00 30 1012.6
20260505211334 23 285 4.8 20.9 0.00 0.00 0.00 31 1012.5
20260505210830 23 296 16.1 22.5 0.00 0.00 0.00 30 1012.6
20260505210327 23 345 4.8 14.5 0.00 0.00 0.00 31 1012.9
20260505205823 23 314 6.4 19.3 0.00 0.00 0.00 31 1012.9
20260505205322 23 266 6.4 14.5 0.00 0.00 0.00 31 1012.7
20260505204818 23 330 12.9 22.5 0.00 0.00 0.00 30 1013.0
20260505204316 23 313 17.7 24.1 0.00 0.00 0.00 31 1012.7
20260505203813 23 297 11.3 22.5 0.00 0.00 0.00 31 1012.7
20260505203310 23 285 4.8 20.9 0.00 0.00 0.00 33 1012.9
20260505202806 22 337 4.8 19.3 0.00 0.00 0.00 34 1013.0
20260505202305 23 319 14.5 16.1 0.00 0.00 0.00 32 1012.9
20260505201759 23 312 16.1 19.3 0.00 0.00 0.00 32 1012.7
20260505201256 23 310 6.4 25.7 0.00 0.00 0.00 34 1012.7
20260505200755 23 326 11.3 17.7 0.00 0.00 0.00 33 1012.9
20260505200251 23 323 4.8 22.5 0.00 0.00 0.00 35 1012.7
20260505195746 22 332 12.9 22.5 0.00 0.00 0.00 35 1012.9
20260505195245 23 291 6.4 20.9 0.00 0.00 0.00 34 1012.7
20260505194742 23 326 14.5 29.0 0.00 0.00 0.00 34 1013.0
20260505194238 22 20 11.3 24.1 0.00 0.00 0.00 35 1012.7
20260505193733 22 353 20.9 24.1 0.00 0.00 0.00 36 1012.7
20260505193231 23 34 9.7 16.1 0.00 0.00 0.00 35 1013.0
20260505192725 23 355 16.1 20.9 0.00 0.00 0.00 34 1012.7
20260505192222 22 4 0.0 11.3 0.00 0.00 0.00 34 1012.7
20260505191720 22 260 1.6 6.4 0.00 0.00 0.00 38 1012.9
20260505191218 22 259 4.8 8.0 0.00 0.00 0.00 39 1013.1
20260505190714 22 243 8.0 12.9 0.00 0.00 0.00 39 1012.9
20260505190213 22 257 8.0 14.5 0.00 0.00 0.00 40 1013.1
20260505185710 21 254 12.9 16.1 0.00 0.00 0.00 42 1013.0
20260505185207 21 180 3.2 9.7 0.00 0.00 0.00 43 1012.7
20260505184703 21 217 8.0 12.9 0.00 0.00 0.00 45 1013.1
20260505184201 20 204 4.8 11.3 0.00 0.00 0.00 45 1013.0
20260505183657 20 186 8.0 12.9 0.00 0.00 0.00 47 1013.1
20260505183155 21 200 8.0 12.9 0.00 0.00 0.00 46 1013.2
20260505182650 20 224 8.0 9.7 0.00 0.00 0.00 49 1013.3
20260505182148 20 206 3.2 8.0 0.00 0.00 0.00 51 1013.2
20260505181644 19 204 9.7 11.3 0.00 0.00 0.00 49 1013.3
20260505181142 20 168 1.6 11.3 0.00 0.00 0.00 48 1013.4
20260505180638 18 208 4.8 11.3 0.00 0.00 0.00 49 1013.6
20260505180135 18 167 3.2 11.3 0.00 0.00 0.00 49 1013.2
20260505175630 18 137 4.8 8.0 0.00 0.00 0.00 47 1013.6
20260505175122 18 179 3.2 6.4 0.00 0.00 0.00 49 1013.4
20260505174618 18 201 6.4 14.5 0.00 0.00 0.00 50 1013.5
20260505174115 18 169 1.6 8.0 0.00 0.00 0.00 51 1013.6
20260505173612 18 213 4.8 6.4 0.00 0.00 0.00 52 1013.7
20260505173108 18 114 1.6 8.0 0.00 0.00 0.00 55 1013.4
20260505172606 17 202 8.0 9.7 0.00 0.00 0.00 54 1013.6
20260505172102 17 171 1.6 9.7 0.00 0.00 0.00 54 1013.7
20260505171556 17 155 3.2 6.4 0.00 0.00 0.00 54 1013.5
20260505171054 17 136 6.4 8.0 0.00 0.00 0.00 54 1013.7
20260505170551 17 184 4.8 6.4 0.00 0.00 0.00 55 1013.5
20260505170048 17 139 9.7 11.3 0.00 0.00 0.00 53 1013.7
20260505165543 17 108 3.2 6.4 0.00 0.00 0.00 53 1013.6
20260505165039 16 144 3.2 6.4 0.00 0.00 0.00 54 1014.0
20260505164535 16 130 6.4 6.4 0.00 0.00 0.00 53 1014.1
20260505164033 16 147 3.2 8.0 0.00 0.00 0.00 54 1013.9
20260505163531 16 135 8.0 8.0 0.00 0.00 0.00 54 1013.6
20260505163027 16 173 3.2 8.0 0.00 0.00 0.00 54 1013.9
20260505162521 15 157 1.6 6.4 0.00 0.00 0.00 56 1013.9
20260505162018 15 180 4.8 4.8 0.00 0.00 0.00 54 1013.9
20260505161514 15 172 3.2 12.9 0.00 0.00 0.00 54 1013.7
20260505161012 16 185 1.6 4.8 0.00 0.00 0.00 53 1013.7
20260505160510 15 107 0.0 8.0 0.00 0.00 0.00 54 1013.6
20260505152946 14 106 3.2 6.4 0.00 0.00 0.00 54 1013.6
20260505152443 13 148 3.2 6.4 0.00 0.00 0.00 56 1013.9
20260505151943 13 161 1.6 6.4 0.00 0.00 0.00 58 1013.5
20260505151434 13 171 0.0 6.4 0.00 0.00 0.00 58 1013.6
20260505150931 13 117 3.2 4.8 0.00 0.00 0.00 57 1013.6
20260505150428 13 98 3.2 4.8 0.00 0.00 0.00 58 1013.6
20260505140357 7 47 4.8 6.4 0.00 0.00 0.00 78 1013.5
20260505124812 3 50 3.2 4.8 0.00 0.00 0.00 88 1012.9
20260505124308 3 80 3.2 6.4 0.00 0.00 0.00 87 1012.6
20260505123804 3 96 3.2 6.4 0.00 0.00 0.00 87 1012.7
20260505123300 3 67 4.8 6.4 0.00 0.00 0.00 88 1012.5
20260505122756 4 96 3.2 6.4 0.00 0.00 0.00 87 1012.6
20260505122254 3 63 4.8 6.4 0.00 0.00 0.00 87 1012.6
20260505121750 3 50 4.8 6.4 0.00 0.00 0.00 88 1012.5
20260505121248 3 56 4.8 4.8 0.00 0.00 0.00 87 1012.5
20260505120744 3 97 3.2 4.8 0.00 0.00 0.00 87 1012.6
20260505120240 3 92 3.2 4.8 0.00 0.00 0.00 86 1012.3
20260505115739 4 68 1.6 3.2 0.00 0.00 0.00 85 1012.3
20260505115237 5 102 4.8 6.4 0.00 0.00 0.00 84 1012.4
20260505114734 5 98 3.2 4.8 0.00 0.00 0.00 84 1012.2
20260505114229 4 84 6.4 6.4 0.00 0.00 0.00 85 1012.3
20260505113726 5 91 6.4 6.4 0.00 0.00 0.00 84 1012.3
20260505113223 5 56 4.8 6.4 0.00 0.00 0.00 84 1012.5
20260505112719 5 44 3.2 6.4 0.00 0.00 0.00 84 1012.2
20260505112217 5 21 6.4 6.4 0.00 0.00 0.00 84 1012.1
20260505111712 5 59 4.8 8.0 0.00 0.00 0.00 84 1012.3
20260505111208 5 69 4.8 6.4 0.00 0.00 0.00 84 1012.3
20260505110704 5 66 3.2 6.4 0.00 0.00 0.00 84 1012.3
20260505110202 5 42 6.4 8.0 0.00 0.00 0.00 84 1012.0
20260505102137 5 52 3.2 3.2 0.00 0.00 0.00 84 1011.7
20260505101636 5 64 3.2 3.2 0.00 0.00 0.00 84 1012.0
20260505101132 5 84 4.8 6.4 0.00 0.00 0.00 84 1011.6
20260505100628 5 89 4.8 4.8 0.00 0.00 0.00 83 1011.7
20260505100125 5 61 3.2 4.8 0.00 0.00 0.00 83 1011.7
20260505095621 5 103 0.0 1.6 0.00 0.00 0.00 83 1012.0
20260505095118 5 71 3.2 6.4 0.00 0.00 0.00 82 1012.0
20260505094614 5 85 3.2 4.8 0.00 0.00 0.00 81 1011.7
20260505094111 5 100 4.8 6.4 0.00 0.00 0.00 81 1011.9
20260505093607 5 115 8.0 8.0 0.00 0.00 0.00 79 1011.7
20260505093104 6 114 6.4 6.4 0.00 0.00 0.00 79 1011.7
20260505092601 6 8 6.4 9.7 0.00 0.00 0.00 79 1011.9
20260505092100 6 15 4.8 4.8 0.00 0.00 0.00 80 1011.9
20260505091556 6 40 4.8 6.4 0.00 0.00 0.00 81 1012.0
20260505091055 5 44 0.0 3.2 0.00 0.00 0.00 80 1011.9
20260505090552 6 89 3.2 3.2 0.00 0.00 0.00 79 1011.7
20260505090050 6 79 4.8 4.8 0.00 0.00 0.00 79 1012.0
20260505085547 6 94 6.4 6.4 0.00 0.00 0.00 79 1011.9
20260505085046 6 74 3.2 3.2 0.00 0.00 0.00 79 1011.7
20260505084543 6 88 1.6 3.2 0.00 0.00 0.00 77 1011.9
20260505084041 6 79 4.8 4.8 0.00 0.00 0.00 76 1011.7
20260505083538 7 67 3.2 3.2 0.00 0.00 0.00 75 1011.7
20260505083035 7 108 6.4 6.4 0.00 0.00 0.00 75 1011.9
20260505082530 7 87 3.2 4.8 0.00 0.00 0.00 75 1011.7
20260505082027 7 81 3.2 4.8 0.00 0.00 0.00 74 1011.6
20260505081524 7 89 3.2 3.2 0.00 0.00 0.00 74 1011.7
20260505081021 7 52 3.2 6.4 0.00 0.00 0.00 74 1011.7
20260505080517 7 58 4.8 6.4 0.00 0.00 0.00 74 1011.7
20260505080014 7 58 4.8 6.4 0.00 0.00 0.00 73 1011.6
20260505075510 7 35 4.8 4.8 0.00 0.00 0.00 72 1011.6
20260505075007 7 58 3.2 4.8 0.00 0.00 0.00 72 1011.7
20260505074504 7 24 6.4 6.4 0.00 0.00 0.00 72 1011.7
20260505074001 7 46 1.6 1.6 0.00 0.00 0.00 71 1011.7
20260505073459 7 38 3.2 3.2 0.00 0.00 0.00 72 1011.6
20260505072956 7 77 0.0 4.8 0.00 0.00 0.00 71 1011.7
20260505072452 7 65 3.2 6.4 0.00 0.00 0.00 71 1011.7
20260505071948 7 15 4.8 6.4 0.00 0.00 0.00 71 1011.7
20260505071444 8 41 3.2 6.4 0.00 0.00 0.00 70 1011.7
20260505070943 8 358 3.2 4.8 0.00 0.00 0.00 71 1011.5
20260505070439 8 26 6.4 6.4 0.00 0.00 0.00 70 1011.4
20260505065935 8 48 1.6 6.4 0.00 0.00 0.00 70 1011.6
20260505065431 8 0 3.2 8.0 0.00 0.00 0.00 69 1011.5
20260505064928 8 10 4.8 6.4 0.00 0.00 0.00 71 1011.6
20260505064425 8 7 3.2 4.8 0.00 0.00 0.00 71 1011.6
20260505063923 8 32 4.8 8.0 0.00 0.00 0.00 70 1011.5
20260505063420 8 44 3.2 6.4 0.00 0.00 0.00 70 1011.5
20260505062916 8 63 3.2 3.2 0.00 0.00 0.00 68 1011.5
20260505062414 8 34 6.4 6.4 0.00 0.00 0.00 69 1011.7
20260505061910 8 44 3.2 6.4 0.00 0.00 0.00 69 1011.5
20260505061409 8 12 3.2 4.8 0.00 0.00 0.00 68 1011.5
20260505060906 9 35 4.8 4.8 0.00 0.00 0.00 67 1011.5
20260505060402 9 57 1.6 4.8 0.00 0.00 0.00 68 1011.4